Back to catalog

THOR ABLESTAR DEB

AliveLEO
NORAD 262·DEBRIS·🇺🇸 United States

Launched Jun 29, 1961 from Cape Canaveral Space Force Station

Loading…

Next Passes (next 24 hours)

TLE

FreshSource: Space-Track

Epoch: Sep 14, 2026, 12:35 UTC

1 00262U 61015CJ  26257.52469041  .00001278  00000-0  27919-3 0  9995
2 00262  66.4610 177.3210 0054510  17.0114 343.2808 14.60474425371562

Track THOR ABLESTAR DEB in real time with AllMySat

Download on the App Store